Time,TemperatureF,DewpointF,PressureIn,WindDirection,WindDirectionDegrees,WindSpeedMPH,WindSpeedGustMPH,Humidity,HourlyPrecipIn,Conditions,Clouds,dailyrainin,SoftwareType,DateUTC
2013-03-21 00:00:00,22.8,20.3,29.46,SSW,205,2.0,11.0,90,0.00,,,0.00,meteohub,2013-03-21 04:00:00,
2013-03-21 00:01:00,22.6,19.9,29.46,SSW,213,4.0,6.0,89,0.00,,,0.00,meteohub,2013-03-21 04:01:00,
2013-03-21 00:02:00,22.6,20.1,29.46,WSW,246,5.0,6.0,90,0.00,,,0.00,meteohub,2013-03-21 04:02:00,
2013-03-21 00:07:00,22.6,19.9,29.46,SSW,208,4.0,8.0,89,0.00,,,0.00,meteohub,2013-03-21 04:07:00,
2013-03-21 00:12:00,22.6,19.9,29.46,SW,221,3.0,8.0,89,0.00,,,0.00,meteohub,2013-03-21 04:12:00,
2013-03-21 00:17:00,22.6,19.9,29.46,SW,220,7.0,8.0,89,0.00,,,0.00,meteohub,2013-03-21 04:17:00,
2013-03-21 00:22:00,22.6,19.9,29.46,SW,215,3.0,9.0,89,0.00,,,0.00,meteohub,2013-03-21 04:22:00,
2013-03-21 00:27:00,22.5,19.8,29.46,WSW,243,4.0,9.0,89,0.00,,,0.00,meteohub,2013-03-21 04:27:00,
2013-03-21 00:33:00,22.5,19.8,29.46,SSW,209,1.0,9.0,89,0.00,,,0.00,meteohub,2013-03-21 04:33:00,
2013-03-21 00:38:00,22.5,19.4,29.46,SW,223,1.0,7.0,88,0.00,,,0.00,meteohub,2013-03-21 04:38:00,
2013-03-21 00:43:00,22.3,19.6,29.46,SSW,202,3.0,7.0,89,0.00,,,0.00,meteohub,2013-03-21 04:43:00,
2013-03-21 00:49:00,22.3,19.6,29.46,SE,146,2.0,7.0,89,0.00,,,0.00,meteohub,2013-03-21 04:49:00,
2013-03-21 00:54:00,22.3,19.2,29.46,SE,144,3.0,6.0,88,0.00,,,0.00,meteohub,2013-03-21 04:54:00,
2013-03-21 00:59:00,22.3,19.2,29.46,South,188,1.0,8.0,88,0.00,,,0.00,meteohub,2013-03-21 04:59:00,
2013-03-21 01:05:00,22.3,19.0,29.47,WSW,244,2.0,8.0,87,0.00,,,0.00,meteohub,2013-03-21 05:05:00,
2013-03-21 01:10:00,22.1,19.0,29.47,SSE,167,2.0,12.0,88,0.00,,,0.00,meteohub,2013-03-21 05:10:00,
2013-03-21 01:15:00,22.1,18.9,29.47,WSW,238,2.0,12.0,87,0.00,,,0.00,meteohub,2013-03-21 05:15:00,
2013-03-21 01:20:00,21.9,18.7,29.47,WSW,242,1.0,11.0,87,0.00,,,0.00,meteohub,2013-03-21 05:20:00,
2013-03-21 01:25:00,21.9,18.7,29.47,WSW,246,2.0,7.0,87,0.00,,,0.00,meteohub,2013-03-21 05:25:00,
2013-03-21 01:30:00,21.9,18.7,29.47,SW,231,0.0,6.0,87,0.00,,,0.00,meteohub,2013-03-21 05:30:00,
2013-03-21 01:35:00,21.9,18.7,29.47,SW,215,4.0,6.0,87,0.00,,,0.00,meteohub,2013-03-21 05:35:00,
2013-03-21 01:40:00,22.1,18.5,29.47,SSW,199,3.0,9.0,86,0.00,,,0.00,meteohub,2013-03-21 05:40:00,
2013-03-21 01:45:00,22.1,18.5,29.47,SSW,209,4.0,9.0,86,0.00,,,0.00,meteohub,2013-03-21 05:45:00,
2013-03-21 01:50:00,22.1,18.3,29.47,West,260,2.0,10.0,85,0.00,,,0.00,meteohub,2013-03-21 05:50:00,
2013-03-21 01:57:00,21.9,18.3,29.48,SSW,211,1.0,10.0,86,0.00,,,0.00,meteohub,2013-03-21 05:57:00,
2013-03-21 02:01:00,21.7,18.1,29.48,SW,232,0.0,10.0,86,0.00,,,0.00,meteohub,2013-03-21 06:01:00,
2013-03-21 02:07:00,21.7,18.1,29.48,SW,232,0.0,5.0,86,0.00,,,0.00,meteohub,2013-03-21 06:07:00,
2013-03-21 02:12:00,21.6,18.0,29.48,SSW,211,2.0,5.0,86,0.00,,,0.00,meteohub,2013-03-21 06:12:00,
2013-03-21 02:17:00,21.6,18.0,29.48,South,171,1.0,6.0,86,0.00,,,0.00,meteohub,2013-03-21 06:17:00,
2013-03-21 02:22:00,21.6,18.0,29.48,SSW,197,3.0,6.0,86,0.00,,,0.00,meteohub,2013-03-21 06:22:00,
2013-03-21 02:27:00,21.4,17.8,29.48,WSW,244,1.0,6.0,86,0.00,,,0.00,meteohub,2013-03-21 06:27:00,
2013-03-21 02:33:00,21.4,17.8,29.49,West,268,1.0,6.0,86,0.00,,,0.00,meteohub,2013-03-21 06:33:00,
2013-03-21 02:38:00,21.0,17.8,29.49,South,177,0.0,6.0,87,0.00,,,0.00,meteohub,2013-03-21 06:38:00,
2013-03-21 02:43:00,20.7,17.4,29.48,SW,219,1.0,6.0,87,0.00,,,0.00,meteohub,2013-03-21 06:43:00,
2013-03-21 02:48:00,20.7,17.6,29.48,SW,224,2.0,6.0,88,0.00,,,0.00,meteohub,2013-03-21 06:48:00,
2013-03-21 02:54:00,20.8,17.6,29.49,SW,225,2.0,6.0,87,0.00,,,0.00,meteohub,2013-03-21 06:54:00,
2013-03-21 02:59:00,20.8,17.6,29.49,SW,225,0.0,6.0,87,0.00,,,0.00,meteohub,2013-03-21 06:59:00,
2013-03-21 03:04:00,20.7,17.6,29.49,SW,230,0.0,5.0,88,0.00,,,0.00,meteohub,2013-03-21 07:04:00,
2013-03-21 03:09:00,20.8,17.8,29.49,South,170,2.0,4.0,88,0.00,,,0.00,meteohub,2013-03-21 07:09:00,
2013-03-21 03:14:00,21.2,18.1,29.49,SSW,204,0.0,6.0,88,0.00,,,0.00,meteohub,2013-03-21 07:14:00,
2013-03-21 03:20:00,21.4,18.3,29.49,SSW,208,0.0,6.0,88,0.00,,,0.00,meteohub,2013-03-21 07:20:00,
2013-03-21 03:25:00,21.2,18.1,29.49,SSW,207,0.0,6.0,88,0.00,,,0.00,meteohub,2013-03-21 07:25:00,
2013-03-21 03:30:00,21.2,18.1,29.50,WSW,254,1.0,3.0,88,0.00,,,0.00,meteohub,2013-03-21 07:30:00,
2013-03-21 03:35:00,21.2,18.1,29.50,WSW,240,0.0,3.0,88,0.00,,,0.00,meteohub,2013-03-21 07:35:00,
2013-03-21 03:40:00,21.0,18.0,29.50,SW,221,0.0,6.0,88,0.00,,,0.00,meteohub,2013-03-21 07:40:00,
2013-03-21 03:45:00,21.4,18.3,29.50,WSW,244,1.0,6.0,88,0.00,,,0.00,meteohub,2013-03-21 07:45:00,
2013-03-21 03:51:00,21.6,18.3,29.50,WSW,237,0.0,7.0,87,0.00,,,0.00,meteohub,2013-03-21 07:51:00,
2013-03-21 03:56:00,21.6,18.3,29.50,WSW,257,1.0,7.0,87,0.00,,,0.00,meteohub,2013-03-21 07:56:00,
2013-03-21 04:01:00,21.7,18.5,29.50,WSW,244,4.0,9.0,87,0.00,,,0.00,meteohub,2013-03-21 08:01:00,
2013-03-21 04:06:00,21.6,18.3,29.50,WSW,251,3.0,9.0,87,0.00,,,0.00,meteohub,2013-03-21 08:06:00,
2013-03-21 04:11:00,21.6,18.3,29.50,South,186,2.0,9.0,87,0.00,,,0.00,meteohub,2013-03-21 08:11:00,
2013-03-21 04:17:00,21.6,18.3,29.50,South,180,4.0,11.0,87,0.00,,,0.00,meteohub,2013-03-21 08:17:00,
2013-03-21 04:22:00,21.6,18.0,29.51,SSW,213,1.0,11.0,86,0.00,,,0.00,meteohub,2013-03-21 08:22:00,
2013-03-21 04:27:00,21.6,18.3,29.51,SW,233,4.0,11.0,87,0.00,,,0.00,meteohub,2013-03-21 08:27:00,
2013-03-21 04:32:00,21.6,18.3,29.51,South,183,2.0,7.0,87,0.00,,,0.00,meteohub,2013-03-21 08:32:00,
2013-03-21 04:37:00,21.4,18.1,29.51,SSW,211,4.0,6.0,87,0.00,,,0.00,meteohub,2013-03-21 08:37:00,
2013-03-21 04:42:00,21.4,18.1,29.52,WSW,237,1.0,6.0,87,0.00,,,0.00,meteohub,2013-03-21 08:42:00,
2013-03-21 04:47:00,21.2,18.0,29.52,WSW,242,2.0,5.0,87,0.00,,,0.00,meteohub,2013-03-21 08:47:00,
2013-03-21 04:52:00,21.0,17.8,29.52,SW,222,0.0,5.0,87,0.00,,,0.00,meteohub,2013-03-21 08:52:00,
2013-03-21 04:58:00,20.8,17.6,29.52,SW,219,1.0,4.0,87,0.00,,,0.00,meteohub,2013-03-21 08:58:00,
2013-03-21 05:03:00,20.7,17.4,29.52,South,185,1.0,4.0,87,0.00,,,0.00,meteohub,2013-03-21 09:03:00,
2013-03-21 05:08:00,20.7,17.6,29.52,SW,216,0.0,3.0,88,0.00,,,0.00,meteohub,2013-03-21 09:08:00,
2013-03-21 05:14:00,20.7,17.4,29.53,SW,217,3.0,5.0,87,0.00,,,0.00,meteohub,2013-03-21 09:14:00,
2013-03-21 05:19:00,20.5,17.4,29.53,South,191,1.0,5.0,88,0.00,,,0.00,meteohub,2013-03-21 09:19:00,
2013-03-21 05:24:00,19.9,16.9,29.53,SSW,198,2.0,5.0,88,0.00,,,0.00,meteohub,2013-03-21 09:24:00,
2013-03-21 05:29:00,19.6,16.9,29.53,SSW,197,0.0,4.0,89,0.00,,,0.00,meteohub,2013-03-21 09:29:00,
2013-03-21 05:34:00,19.2,16.5,29.54,SSW,197,0.0,3.0,89,0.00,,,0.00,meteohub,2013-03-21 09:34:00,
2013-03-21 05:39:00,19.2,16.7,29.53,SSW,197,0.0,3.0,90,0.00,,,0.00,meteohub,2013-03-21 09:39:00,
2013-03-21 05:44:00,18.9,16.3,29.54,SSW,197,0.0,3.0,90,0.00,,,0.00,meteohub,2013-03-21 09:44:00,
2013-03-21 05:50:00,18.7,16.2,29.54,SSW,197,0.0,2.0,90,0.00,,,0.00,meteohub,2013-03-21 09:50:00,
2013-03-21 05:55:00,18.7,16.2,29.54,SSW,197,0.0,2.0,90,0.00,,,0.00,meteohub,2013-03-21 09:55:00,
2013-03-21 06:00:00,18.3,16.2,29.54,SSW,197,1.0,2.0,91,0.00,,,0.00,meteohub,2013-03-21 10:00:00,
2013-03-21 06:05:00,18.1,16.0,29.54,SSW,198,0.0,2.0,91,0.00,,,0.00,meteohub,2013-03-21 10:05:00,
2013-03-21 06:10:00,18.1,16.0,29.54,SSW,198,0.0,2.0,91,0.00,,,0.00,meteohub,2013-03-21 10:10:00,
2013-03-21 06:15:00,18.0,15.8,29.54,SSW,198,0.0,2.0,91,0.00,,,0.00,meteohub,2013-03-21 10:15:00,
2013-03-21 06:21:00,18.0,15.8,29.54,SSW,198,0.0,2.0,91,0.00,,,0.00,meteohub,2013-03-21 10:21:00,
2013-03-21 06:26:00,18.0,15.8,29.54,SSW,198,0.0,2.0,91,0.00,,,0.00,meteohub,2013-03-21 10:26:00,
2013-03-21 06:31:00,18.0,15.8,29.54,SSW,198,0.0,3.0,91,0.00,,,0.00,meteohub,2013-03-21 10:31:00,
2013-03-21 06:37:00,17.6,15.4,29.55,SSW,207,0.0,3.0,91,0.00,,,0.00,meteohub,2013-03-21 10:37:00,
2013-03-21 06:42:00,17.6,15.4,29.55,SSW,211,1.0,4.0,91,0.00,,,0.00,meteohub,2013-03-21 10:42:00,
2013-03-21 06:47:00,18.0,16.0,29.56,SW,218,3.0,4.0,92,0.00,,,0.00,meteohub,2013-03-21 10:47:00,
2013-03-21 06:52:00,18.0,15.8,29.56,SW,217,0.0,4.0,91,0.00,,,0.00,meteohub,2013-03-21 10:52:00,
2013-03-21 06:57:00,17.4,15.3,29.56,SW,217,1.0,4.0,91,0.00,,,0.00,meteohub,2013-03-21 10:57:00,
2013-03-21 07:02:00,17.6,15.4,29.56,SSW,210,0.0,4.0,91,0.00,,,0.00,meteohub,2013-03-21 11:02:00,
2013-03-21 07:07:00,17.6,15.4,29.56,SSW,210,0.0,3.0,91,0.00,,,0.00,meteohub,2013-03-21 11:07:00,
2013-03-21 07:13:00,17.8,15.8,29.56,SSW,210,0.0,3.0,92,0.00,,,0.00,meteohub,2013-03-21 11:13:00,
2013-03-21 07:18:00,18.0,16.0,29.57,SSW,210,2.0,2.0,92,0.00,,,0.00,meteohub,2013-03-21 11:18:00,
2013-03-21 07:23:00,18.3,16.3,29.57,SSW,210,0.0,3.0,92,0.00,,,0.00,meteohub,2013-03-21 11:23:00,
2013-03-21 07:28:00,18.9,16.9,29.57,SSW,210,1.0,3.0,92,0.00,,,0.00,meteohub,2013-03-21 11:28:00,
2013-03-21 07:33:00,19.4,17.4,29.57,SSW,210,0.0,3.0,92,0.00,,,0.00,meteohub,2013-03-21 11:33:00,
2013-03-21 07:39:00,19.9,17.8,29.57,SSW,210,1.0,2.0,91,0.00,,,0.00,meteohub,2013-03-21 11:39:00,
2013-03-21 07:44:00,20.5,18.3,29.57,SSW,210,0.0,2.0,91,0.00,,,0.00,meteohub,2013-03-21 11:44:00,
2013-03-21 07:49:00,21.4,19.2,29.57,SSW,210,0.0,2.0,91,0.00,,,0.00,meteohub,2013-03-21 11:49:00,
2013-03-21 07:54:00,22.3,19.8,29.57,SSE,155,1.0,2.0,90,0.00,,,0.00,meteohub,2013-03-21 11:54:00,
2013-03-21 07:59:00,23.0,20.3,29.57,South,183,1.0,2.0,89,0.00,,,0.00,meteohub,2013-03-21 11:59:00,
2013-03-21 08:05:00,23.5,20.3,29.57,SSE,151,2.0,3.0,87,0.00,,,0.00,meteohub,2013-03-21 12:05:00,
2013-03-21 08:10:00,23.7,20.5,29.57,SSE,150,2.0,3.0,87,0.00,,,0.00,meteohub,2013-03-21 12:10:00,
2013-03-21 08:15:00,23.9,20.7,29.57,SSE,148,1.0,7.0,87,0.00,,,0.00,meteohub,2013-03-21 12:15:00,
2013-03-21 08:20:00,24.1,20.8,29.57,SSE,167,1.0,7.0,87,0.00,,,0.00,meteohub,2013-03-21 12:20:00,
2013-03-21 08:25:00,23.7,20.5,29.58,SE,132,1.0,6.0,87,0.00,,,0.00,meteohub,2013-03-21 12:25:00,
2013-03-21 08:31:00,23.4,20.1,29.58,SSE,164,0.0,5.0,87,0.00,,,0.00,meteohub,2013-03-21 12:31:00,
2013-03-21 08:36:00,23.4,20.3,29.58,South,182,3.0,5.0,88,0.00,,,0.00,meteohub,2013-03-21 12:36:00,
2013-03-21 08:41:00,23.4,20.3,29.58,SSE,154,0.0,5.0,88,0.00,,,0.00,meteohub,2013-03-21 12:41:00,
2013-03-21 08:46:00,23.7,21.0,29.58,SE,135,2.0,5.0,89,0.00,,,0.00,meteohub,2013-03-21 12:46:00,
2013-03-21 08:51:00,24.3,21.6,29.58,SE,131,0.0,5.0,89,0.00,,,0.00,meteohub,2013-03-21 12:51:00,
2013-03-21 08:57:00,24.6,21.9,29.59,South,190,2.0,4.0,89,0.00,,,0.00,meteohub,2013-03-21 12:57:00,
2013-03-21 09:02:00,24.8,21.7,29.59,SSW,210,1.0,6.0,88,0.00,,,0.00,meteohub,2013-03-21 13:02:00,
2013-03-21 09:08:00,25.2,22.1,29.59,South,186,1.0,6.0,88,0.00,,,0.00,meteohub,2013-03-21 13:08:00,
2013-03-21 09:13:00,25.3,22.3,29.59,South,185,1.0,6.0,88,0.00,,,0.00,meteohub,2013-03-21 13:13:00,
2013-03-21 09:18:00,25.5,22.5,29.59,South,190,0.0,6.0,88,0.00,,,0.00,meteohub,2013-03-21 13:18:00,
2013-03-21 09:23:00,25.9,22.8,29.59,ESE,121,0.0,6.0,88,0.00,,,0.00,meteohub,2013-03-21 13:23:00,
2013-03-21 09:29:00,26.1,23.0,29.60,SSW,192,3.0,4.0,88,0.00,,,0.00,meteohub,2013-03-21 13:29:00,
2013-03-21 09:34:00,26.4,22.8,29.60,South,187,2.0,5.0,86,0.00,,,0.00,meteohub,2013-03-21 13:34:00,
2013-03-21 09:39:00,27.1,23.0,29.60,SSW,205,3.0,8.0,84,0.00,,,0.00,meteohub,2013-03-21 13:39:00,
2013-03-21 09:44:00,27.5,23.0,29.60,SW,232,0.0,10.0,83,0.00,,,0.00,meteohub,2013-03-21 13:44:00,
2013-03-21 09:49:00,27.9,23.0,29.60,SE,138,7.0,10.0,82,0.00,,,0.00,meteohub,2013-03-21 13:49:00,
2013-03-21 09:55:00,28.0,23.2,29.60,West,273,0.0,10.0,82,0.00,,,0.00,meteohub,2013-03-21 13:55:00,
2013-03-21 10:00:00,28.6,24.1,29.60,ESE,120,2.0,8.0,83,0.00,,,0.00,meteohub,2013-03-21 14:00:00,
2013-03-21 10:05:00,28.9,23.9,29.60,WNW,295,0.0,8.0,81,0.00,,,0.00,meteohub,2013-03-21 14:05:00,
2013-03-21 10:11:00,28.8,23.4,29.60,WNW,283,3.0,12.0,80,0.00,,,0.00,meteohub,2013-03-21 14:11:00,
2013-03-21 10:16:00,28.8,23.4,29.61,WSW,244,0.0,12.0,80,0.00,,,0.00,meteohub,2013-03-21 14:16:00,
2013-03-21 10:22:00,28.9,23.2,29.60,SW,228,1.0,12.0,79,0.01,,,0.01,meteohub,2013-03-21 14:22:00,
2013-03-21 10:27:00,29.1,23.4,29.60,WNW,288,6.0,12.0,79,0.01,,,0.01,meteohub,2013-03-21 14:27:00,
2013-03-21 10:32:00,28.8,22.5,29.61,SW,236,0.0,12.0,77,0.01,,,0.01,meteohub,2013-03-21 14:32:00,
2013-03-21 10:37:00,28.9,23.0,29.61,SW,225,7.0,15.0,78,0.01,,,0.01,meteohub,2013-03-21 14:37:00,
2013-03-21 10:43:00,29.1,23.2,29.61,West,265,4.0,15.0,78,0.01,,,0.01,meteohub,2013-03-21 14:43:00,
2013-03-21 10:48:00,29.5,23.7,29.62,SW,223,5.0,15.0,79,0.01,,,0.01,meteohub,2013-03-21 14:48:00,
2013-03-21 10:53:00,30.6,24.8,29.61,SSE,162,5.0,10.0,79,0.01,,,0.01,meteohub,2013-03-21 14:53:00,
2013-03-21 10:58:00,30.7,24.1,29.62,SSW,202,2.0,10.0,76,0.01,,,0.01,meteohub,2013-03-21 14:58:00,
2013-03-21 11:03:00,30.2,23.2,29.62,SSW,211,3.0,12.0,75,0.02,,,0.02,meteohub,2013-03-21 15:03:00,
2013-03-21 11:08:00,30.0,23.7,29.62,South,182,2.0,12.0,77,0.02,,,0.02,meteohub,2013-03-21 15:08:00,
2013-03-21 11:13:00,30.2,23.9,29.62,SSW,199,2.0,12.0,77,0.02,,,0.02,meteohub,2013-03-21 15:13:00,
2013-03-21 11:19:00,30.6,23.5,29.62,West,260,5.0,10.0,75,0.03,,,0.03,meteohub,2013-03-21 15:19:00,
2013-03-21 11:24:00,30.6,23.2,29.62,SW,215,5.0,11.0,74,0.02,,,0.03,meteohub,2013-03-21 15:24:00,
2013-03-21 11:29:00,30.7,23.4,29.62,SW,215,0.0,11.0,74,0.03,,,0.04,meteohub,2013-03-21 15:29:00,
2013-03-21 11:35:00,30.9,23.9,29.62,South,178,7.0,11.0,75,0.03,,,0.04,meteohub,2013-03-21 15:35:00,
2013-03-21 11:40:00,30.6,23.2,29.63,South,180,4.0,14.0,74,0.04,,,0.05,meteohub,2013-03-21 15:40:00,
2013-03-21 11:45:00,30.7,24.1,29.62,SW,216,7.0,14.0,76,0.04,,,0.05,meteohub,2013-03-21 15:45:00,
2013-03-21 11:51:00,31.1,23.7,29.62,South,187,7.0,14.0,74,0.04,,,0.05,meteohub,2013-03-21 15:51:00,
2013-03-21 11:56:00,31.3,23.4,29.63,WSW,243,7.0,10.0,72,0.04,,,0.05,meteohub,2013-03-21 15:56:00,
2013-03-21 12:02:00,30.9,22.6,29.63,WSW,257,7.0,14.0,71,0.03,,,0.05,meteohub,2013-03-21 16:02:00,
2013-03-21 12:07:00,30.7,22.8,29.63,SW,219,8.0,14.0,72,0.03,,,0.05,meteohub,2013-03-21 16:07:00,
2013-03-21 12:12:00,30.6,22.3,29.63,SW,223,7.0,14.0,71,0.03,,,0.05,meteohub,2013-03-21 16:12:00,
2013-03-21 12:17:00,30.4,22.8,29.64,SW,225,6.0,17.0,73,0.03,,,0.06,meteohub,2013-03-21 16:17:00,
2013-03-21 12:22:00,30.2,22.3,29.64,South,191,10.0,17.0,72,0.03,,,0.06,meteohub,2013-03-21 16:22:00,
2013-03-21 12:27:00,30.4,21.7,29.64,SSW,209,9.0,15.0,70,0.02,,,0.06,meteohub,2013-03-21 16:27:00,
2013-03-21 12:33:00,30.6,23.0,29.65,WSW,256,4.0,16.0,73,0.02,,,0.06,meteohub,2013-03-21 16:33:00,
2013-03-21 12:38:00,30.6,22.3,29.64,SSW,207,0.0,16.0,71,0.02,,,0.06,meteohub,2013-03-21 16:38:00,
2013-03-21 12:43:00,31.3,22.6,29.64,South,184,11.0,15.0,70,0.01,,,0.06,meteohub,2013-03-21 16:43:00,
2013-03-21 12:48:00,31.1,22.5,29.65,SW,224,3.0,14.0,70,0.01,,,0.06,meteohub,2013-03-21 16:48:00,
2013-03-21 12:53:00,30.9,23.0,29.65,West,266,6.0,14.0,72,0.01,,,0.06,meteohub,2013-03-21 16:53:00,
2013-03-21 12:59:00,31.5,23.9,29.65,SW,220,5.0,14.0,73,0.01,,,0.06,meteohub,2013-03-21 16:59:00,
2013-03-21 13:04:00,31.5,22.8,29.65,SSE,167,2.0,12.0,70,0.02,,,0.07,meteohub,2013-03-21 17:04:00,
2013-03-21 13:09:00,32.0,22.6,29.65,SSW,194,5.0,14.0,68,0.02,,,0.07,meteohub,2013-03-21 17:09:00,
2013-03-21 13:15:00,32.2,22.8,29.65,SW,221,6.0,14.0,68,0.01,,,0.07,meteohub,2013-03-21 17:15:00,
2013-03-21 13:20:00,31.8,22.8,29.65,ESE,119,3.0,14.0,69,0.01,,,0.07,meteohub,2013-03-21 17:20:00,
2013-03-21 13:25:00,32.5,23.2,29.65,South,179,2.0,15.0,68,0.01,,,0.07,meteohub,2013-03-21 17:25:00,
2013-03-21 13:30:00,32.5,22.8,29.65,SSW,207,4.0,15.0,67,0.01,,,0.07,meteohub,2013-03-21 17:30:00,
2013-03-21 13:36:00,32.4,23.0,29.64,SW,225,4.0,10.0,68,0.01,,,0.07,meteohub,2013-03-21 17:36:00,
2013-03-21 13:41:00,31.8,22.1,29.65,SW,219,11.0,11.0,67,0.01,,,0.07,meteohub,2013-03-21 17:41:00,
2013-03-21 13:47:00,31.5,21.7,29.64,SSW,196,5.0,15.0,67,0.01,,,0.07,meteohub,2013-03-21 17:47:00,
2013-03-21 13:52:00,31.5,21.4,29.64,SSW,206,3.0,15.0,66,0.01,,,0.07,meteohub,2013-03-21 17:52:00,
2013-03-21 13:57:00,31.6,22.3,29.64,SW,219,8.0,15.0,68,0.01,,,0.08,meteohub,2013-03-21 17:57:00,
2013-03-21 14:03:00,31.6,21.2,29.64,SW,225,9.0,10.0,65,0.01,,,0.08,meteohub,2013-03-21 18:03:00,
2013-03-21 14:08:00,31.5,21.4,29.64,SSW,209,5.0,15.0,66,0.01,,,0.08,meteohub,2013-03-21 18:08:00,
2013-03-21 14:13:00,31.6,20.8,29.64,WSW,237,3.0,15.0,64,0.01,,,0.08,meteohub,2013-03-21 18:13:00,
2013-03-21 14:18:00,32.2,22.1,29.64,South,180,6.0,13.0,66,0.01,,,0.08,meteohub,2013-03-21 18:18:00,
2013-03-21 14:24:00,32.0,21.6,29.64,SW,231,3.0,13.0,65,0.01,,,0.08,meteohub,2013-03-21 18:24:00,
2013-03-21 14:29:00,31.8,22.1,29.64,WSW,249,5.0,11.0,67,0.01,,,0.08,meteohub,2013-03-21 18:29:00,
2013-03-21 14:34:00,31.6,20.8,29.64,WSW,243,6.0,13.0,64,0.01,,,0.08,meteohub,2013-03-21 18:34:00,
2013-03-21 14:40:00,31.5,20.7,29.64,SW,219,2.0,13.0,64,0.01,,,0.09,meteohub,2013-03-21 18:40:00,
2013-03-21 14:45:00,31.6,21.6,29.64,SW,232,0.0,13.0,66,0.02,,,0.09,meteohub,2013-03-21 18:45:00,
2013-03-21 14:50:00,31.6,21.9,29.65,SW,219,4.0,10.0,67,0.01,,,0.09,meteohub,2013-03-21 18:50:00,
2013-03-21 14:55:00,31.5,21.4,29.65,SSE,166,2.0,10.0,66,0.01,,,0.09,meteohub,2013-03-21 18:55:00,
2013-03-21 15:00:00,31.5,21.4,29.65,WSW,241,5.0,13.0,66,0.01,,,0.09,meteohub,2013-03-21 19:00:00,
2013-03-21 15:06:00,31.5,21.4,29.65,SSW,195,4.0,13.0,66,0.01,,,0.09,meteohub,2013-03-21 19:06:00,
2013-03-21 15:11:00,31.5,21.0,29.65,SSE,157,6.0,13.0,65,0.01,,,0.09,meteohub,2013-03-21 19:11:00,
2013-03-21 15:16:00,31.6,20.8,29.66,SSW,201,3.0,12.0,64,0.01,,,0.09,meteohub,2013-03-21 19:16:00,
2013-03-21 15:21:00,31.3,20.5,29.66,SSW,209,6.0,14.0,64,0.01,,,0.09,meteohub,2013-03-21 19:21:00,
2013-03-21 15:27:00,31.3,20.8,29.66,SSW,213,4.0,14.0,65,0.01,,,0.09,meteohub,2013-03-21 19:27:00,
2013-03-21 15:32:00,31.5,21.4,29.66,SSW,213,7.0,14.0,66,0.02,,,0.10,meteohub,2013-03-21 19:32:00,
2013-03-21 15:37:00,31.5,21.4,29.66,SSW,213,4.0,10.0,66,0.02,,,0.10,meteohub,2013-03-21 19:37:00,
2013-03-21 15:42:00,31.5,22.1,29.66,SW,223,6.0,10.0,68,0.01,,,0.10,meteohub,2013-03-21 19:42:00,
2013-03-21 15:47:00,31.3,21.9,29.66,SSW,213,3.0,9.0,68,0.01,,,0.10,meteohub,2013-03-21 19:47:00,
2013-03-21 15:52:00,31.3,22.6,29.67,West,272,3.0,9.0,70,0.01,,,0.10,meteohub,2013-03-21 19:52:00,
2013-03-21 15:57:00,30.9,23.0,29.66,SSW,196,1.0,8.0,72,0.01,,,0.10,meteohub,2013-03-21 19:57:00,
2013-03-21 16:03:00,30.9,23.0,29.67,SSE,157,3.0,8.0,72,0.01,,,0.10,meteohub,2013-03-21 20:03:00,
2013-03-21 16:08:00,30.7,22.5,29.67,SW,221,1.0,8.0,71,0.01,,,0.10,meteohub,2013-03-21 20:08:00,
2013-03-21 16:13:00,30.9,22.6,29.67,ESE,123,3.0,9.0,71,0.01,,,0.10,meteohub,2013-03-21 20:13:00,
2013-03-21 16:18:00,31.1,22.5,29.67,SE,140,0.0,9.0,70,0.01,,,0.10,meteohub,2013-03-21 20:18:00,
2013-03-21 16:24:00,31.5,22.8,29.66,SSW,192,5.0,7.0,70,0.01,,,0.10,meteohub,2013-03-21 20:24:00,
2013-03-21 16:29:00,31.6,23.0,29.66,SSE,152,1.0,7.0,70,0.00,,,0.10,meteohub,2013-03-21 20:29:00,
2013-03-21 16:34:00,32.0,22.6,29.66,SE,134,1.0,7.0,68,0.01,,,0.10,meteohub,2013-03-21 20:34:00,
2013-03-21 16:39:00,32.2,22.5,29.65,SW,226,4.0,7.0,67,0.01,,,0.11,meteohub,2013-03-21 20:39:00,
2013-03-21 16:44:00,32.2,22.8,29.65,SW,219,1.0,7.0,68,0.01,,,0.11,meteohub,2013-03-21 20:44:00,
2013-03-21 16:50:00,31.8,22.5,29.65,South,173,1.0,7.0,68,0.01,,,0.11,meteohub,2013-03-21 20:50:00,
2013-03-21 16:55:00,31.6,22.6,29.65,SW,233,3.0,7.0,69,0.01,,,0.11,meteohub,2013-03-21 20:55:00,
2013-03-21 17:00:00,31.5,22.8,29.65,SSE,161,3.0,7.0,70,0.01,,,0.11,meteohub,2013-03-21 21:00:00,
2013-03-21 17:05:00,31.3,23.0,29.66,South,176,3.0,7.0,71,0.01,,,0.11,meteohub,2013-03-21 21:05:00,
2013-03-21 17:11:00,30.9,22.6,29.66,SSE,167,3.0,7.0,71,0.01,,,0.11,meteohub,2013-03-21 21:11:00,
2013-03-21 17:16:00,30.7,22.5,29.66,SSE,165,1.0,6.0,71,0.01,,,0.11,meteohub,2013-03-21 21:16:00,
2013-03-21 17:21:00,30.6,22.6,29.66,South,190,0.0,6.0,72,0.01,,,0.11,meteohub,2013-03-21 21:21:00,
2013-03-21 17:27:00,30.4,23.2,29.66,South,191,3.0,5.0,74,0.01,,,0.11,meteohub,2013-03-21 21:27:00,
2013-03-21 17:32:00,30.2,23.0,29.66,South,185,0.0,5.0,74,0.01,,,0.12,meteohub,2013-03-21 21:32:00,
2013-03-21 17:37:00,30.0,22.8,29.66,South,185,1.0,5.0,74,0.01,,,0.12,meteohub,2013-03-21 21:37:00,
2013-03-21 17:42:00,29.8,22.8,29.66,South,185,0.0,3.0,75,0.01,,,0.12,meteohub,2013-03-21 21:42:00,
2013-03-21 17:47:00,29.8,23.2,29.67,South,185,0.0,2.0,76,0.01,,,0.12,meteohub,2013-03-21 21:47:00,
2013-03-21 17:52:00,30.0,24.1,29.67,South,186,0.0,1.0,78,0.01,,,0.12,meteohub,2013-03-21 21:52:00,
2013-03-21 17:57:00,30.4,24.6,29.67,South,186,0.0,0.0,79,0.01,,,0.12,meteohub,2013-03-21 21:57:00,
2013-03-21 18:03:00,30.4,24.3,29.67,SSW,194,1.0,0.0,78,0.01,,,0.12,meteohub,2013-03-21 22:03:00,
2013-03-21 18:08:00,29.5,24.1,29.67,SSW,194,0.0,2.0,80,0.01,,,0.12,meteohub,2013-03-21 22:08:00,
2013-03-21 18:13:00,28.9,24.1,29.67,SSW,194,0.0,2.0,82,0.01,,,0.12,meteohub,2013-03-21 22:13:00,
2013-03-21 18:18:00,28.6,24.1,29.68,SSW,194,1.0,2.0,83,0.01,,,0.12,meteohub,2013-03-21 22:18:00,
2013-03-21 18:23:00,28.2,24.1,29.68,SSW,207,2.0,2.0,84,0.01,,,0.12,meteohub,2013-03-21 22:23:00,
2013-03-21 18:29:00,27.9,23.7,29.68,SSW,207,0.0,3.0,84,0.00,,,0.12,meteohub,2013-03-21 22:29:00,
2013-03-21 18:34:00,27.7,23.5,29.68,SSW,207,0.0,3.0,84,0.00,,,0.12,meteohub,2013-03-21 22:34:00,
2013-03-21 18:39:00,27.3,23.7,29.68,SSW,207,0.0,3.0,86,0.00,,,0.12,meteohub,2013-03-21 22:39:00,
2013-03-21 18:44:00,27.1,23.5,29.68,SSW,207,0.0,3.0,86,0.00,,,0.12,meteohub,2013-03-21 22:44:00,
2013-03-21 18:49:00,27.0,23.5,29.69,SSW,207,0.0,0.0,87,0.00,,,0.12,meteohub,2013-03-21 22:49:00,
2013-03-21 18:54:00,26.8,23.4,29.69,SSW,207,0.0,0.0,87,0.00,,,0.12,meteohub,2013-03-21 22:54:00,
2013-03-21 19:00:00,26.4,23.4,29.69,SSW,207,0.0,0.0,88,0.00,,,0.12,meteohub,2013-03-21 23:00:00,
2013-03-21 19:05:00,26.2,23.2,29.69,SSW,207,0.0,0.0,88,0.00,,,0.12,meteohub,2013-03-21 23:05:00,
2013-03-21 19:10:00,26.1,22.6,29.69,SSW,207,0.0,1.0,87,0.00,,,0.12,meteohub,2013-03-21 23:10:00,
2013-03-21 19:15:00,25.9,22.8,29.68,SSW,207,0.0,1.0,88,0.00,,,0.12,meteohub,2013-03-21 23:15:00,
2013-03-21 19:20:00,25.3,22.3,29.68,SSW,207,0.0,1.0,88,0.00,,,0.12,meteohub,2013-03-21 23:20:00,
2013-03-21 19:26:00,25.2,22.5,29.68,SSW,207,0.0,0.0,89,0.00,,,0.12,meteohub,2013-03-21 23:26:00,
2013-03-21 19:32:00,25.2,22.5,29.68,SSW,207,0.0,0.0,89,0.00,,,0.12,meteohub,2013-03-21 23:32:00,
2013-03-21 19:37:00,25.0,22.3,29.68,SSW,207,0.0,0.0,89,0.00,,,0.12,meteohub,2013-03-21 23:37:00,
2013-03-21 19:42:00,24.6,21.9,29.68,WNW,282,0.0,1.0,89,0.00,,,0.12,meteohub,2013-03-21 23:42:00,
2013-03-21 19:47:00,24.4,21.7,29.68,WNW,282,0.0,2.0,89,0.00,,,0.12,meteohub,2013-03-21 23:47:00,
2013-03-21 19:52:00,24.3,21.2,29.68,WNW,282,0.0,2.0,88,0.00,,,0.12,meteohub,2013-03-21 23:52:00,
2013-03-21 19:57:00,23.7,21.0,29.68,WNW,282,0.0,2.0,89,0.00,,,0.12,meteohub,2013-03-21 23:57:00,
2013-03-21 20:02:00,23.5,21.0,29.68,WNW,282,0.0,0.0,90,0.00,,,0.12,meteohub,2013-03-22 00:02:00,
2013-03-21 20:07:00,23.4,21.2,29.68,WNW,282,0.0,1.0,91,0.00,,,0.00,meteohub,2013-03-22 00:07:00,
2013-03-21 20:12:00,23.2,21.0,29.68,WNW,282,0.0,1.0,91,0.00,,,0.00,meteohub,2013-03-22 00:12:00,
2013-03-21 20:17:00,23.0,20.5,29.68,WNW,282,0.0,1.0,90,0.00,,,0.00,meteohub,2013-03-22 00:17:00,
2013-03-21 20:22:00,22.8,20.7,29.67,WNW,282,0.0,1.0,91,0.00,,,0.00,meteohub,2013-03-22 00:22:00,
2013-03-21 20:27:00,22.8,20.3,29.67,WNW,282,0.0,1.0,90,0.00,,,0.00,meteohub,2013-03-22 00:27:00,
2013-03-21 20:32:00,22.3,19.6,29.68,WNW,282,0.0,1.0,89,0.00,,,0.00,meteohub,2013-03-22 00:32:00,
2013-03-21 20:37:00,21.7,19.0,29.68,WNW,282,0.0,1.0,89,0.00,,,0.00,meteohub,2013-03-22 00:37:00,
2013-03-21 20:43:00,21.4,18.9,29.67,WNW,282,0.0,0.0,90,0.00,,,0.00,meteohub,2013-03-22 00:43:00,
2013-03-21 20:48:00,21.4,19.2,29.67,WNW,283,1.0,0.0,91,0.00,,,0.00,meteohub,2013-03-22 00:48:00,
2013-03-21 20:53:00,20.8,18.3,29.67,WNW,284,0.0,2.0,90,0.00,,,0.00,meteohub,2013-03-22 00:53:00,
2013-03-21 20:58:00,20.5,18.3,29.67,WNW,283,0.0,2.0,91,0.00,,,0.00,meteohub,2013-03-22 00:58:00,
2013-03-21 21:04:00,20.5,18.5,29.67,WNW,283,1.0,2.0,92,0.00,,,0.00,meteohub,2013-03-22 01:04:00,
2013-03-21 21:09:00,20.1,18.1,29.68,WNW,283,0.0,2.0,92,0.00,,,0.00,meteohub,2013-03-22 01:09:00,
2013-03-21 21:15:00,19.8,17.8,29.67,West,262,1.0,2.0,92,0.00,,,0.00,meteohub,2013-03-22 01:15:00,
2013-03-21 21:20:00,19.4,17.4,29.67,West,262,0.0,2.0,92,0.00,,,0.00,meteohub,2013-03-22 01:20:00,
2013-03-21 21:25:00,19.6,18.0,29.67,West,262,0.0,3.0,93,0.00,,,0.00,meteohub,2013-03-22 01:25:00,
2013-03-21 21:30:00,19.4,17.4,29.66,West,262,0.0,3.0,92,0.00,,,0.00,meteohub,2013-03-22 01:30:00,
2013-03-21 21:35:00,19.2,17.2,29.66,West,262,0.0,3.0,92,0.00,,,0.00,meteohub,2013-03-22 01:35:00,
2013-03-21 21:41:00,18.5,16.5,29.67,West,263,0.0,1.0,92,0.00,,,0.00,meteohub,2013-03-22 01:41:00,
2013-03-21 21:47:00,18.1,16.2,29.67,WSW,245,1.0,1.0,92,0.00,,,0.00,meteohub,2013-03-22 01:47:00,
2013-03-21 21:52:00,18.0,16.0,29.67,SW,231,2.0,4.0,92,0.00,,,0.00,meteohub,2013-03-22 01:52:00,
2013-03-21 21:57:00,18.1,16.5,29.67,SW,229,0.0,4.0,93,0.00,,,0.00,meteohub,2013-03-22 01:57:00,
2013-03-21 22:03:00,18.1,16.5,29.67,SW,229,0.0,4.0,93,0.00,,,0.00,meteohub,2013-03-22 02:03:00,
2013-03-21 22:08:00,18.0,16.0,29.67,SW,229,0.0,3.0,92,0.00,,,0.00,meteohub,2013-03-22 02:08:00,
2013-03-21 22:13:00,17.4,15.4,29.67,SW,229,0.0,0.0,92,0.00,,,0.00,meteohub,2013-03-22 02:13:00,
2013-03-21 22:18:00,17.2,15.3,29.67,SW,229,0.0,0.0,92,0.00,,,0.00,meteohub,2013-03-22 02:18:00,
2013-03-21 22:24:00,16.7,14.7,29.67,SW,229,0.0,0.0,92,0.00,,,0.00,meteohub,2013-03-22 02:24:00,
2013-03-21 22:29:00,16.5,14.5,29.67,SW,229,0.0,0.0,92,0.00,,,0.00,meteohub,2013-03-22 02:29:00,
2013-03-21 22:34:00,16.3,14.4,29.67,SW,229,0.0,0.0,92,0.00,,,0.00,meteohub,2013-03-22 02:34:00,
2013-03-21 22:39:00,16.2,14.2,29.67,SW,229,0.0,0.0,92,0.00,,,0.00,meteohub,2013-03-22 02:39:00,
2013-03-21 22:44:00,16.0,13.8,29.67,SW,229,0.0,0.0,91,0.00,,,0.00,meteohub,2013-03-22 02:44:00,
2013-03-21 22:49:00,15.4,13.3,29.67,SW,229,0.0,0.0,91,0.00,,,0.00,meteohub,2013-03-22 02:49:00,
2013-03-21 22:55:00,15.3,13.1,29.67,SW,229,0.0,0.0,91,0.00,,,0.00,meteohub,2013-03-22 02:55:00,
2013-03-21 23:00:00,14.7,12.6,29.67,SW,229,0.0,0.0,91,0.00,,,0.00,meteohub,2013-03-22 03:00:00,
2013-03-21 23:05:00,14.5,12.4,29.66,SW,229,0.0,0.0,91,0.00,,,0.00,meteohub,2013-03-22 03:05:00,
2013-03-21 23:10:00,14.5,12.6,29.66,SW,229,0.0,0.0,92,0.00,,,0.00,meteohub,2013-03-22 03:10:00,
2013-03-21 23:15:00,14.2,12.2,29.66,SW,229,0.0,0.0,92,0.00,,,0.00,meteohub,2013-03-22 03:15:00,
2013-03-21 23:20:00,14.0,12.0,29.66,SW,229,0.0,0.0,92,0.00,,,0.00,meteohub,2013-03-22 03:20:00,
2013-03-21 23:26:00,13.8,11.7,29.66,SW,229,0.0,0.0,91,0.00,,,0.00,meteohub,2013-03-22 03:26:00,
2013-03-21 23:31:00,13.5,11.3,29.66,SW,229,0.0,0.0,91,0.00,,,0.00,meteohub,2013-03-22 03:31:00,
2013-03-21 23:37:00,13.3,11.1,29.66,SW,229,0.0,0.0,91,0.00,,,0.00,meteohub,2013-03-22 03:37:00,
2013-03-21 23:42:00,12.9,10.8,29.66,SW,229,0.0,0.0,91,0.00,,,0.00,meteohub,2013-03-22 03:42:00,
2013-03-21 23:47:00,12.7,10.6,29.66,SW,229,0.0,0.0,91,0.00,,,0.00,meteohub,2013-03-22 03:47:00,
2013-03-21 23:52:00,12.6,10.4,29.66,SW,229,0.0,1.0,91,0.00,,,0.00,meteohub,2013-03-22 03:52:00,
2013-03-21 23:57:00,12.4,10.2,29.67,SW,229,0.0,1.0,91,0.00,,,0.00,meteohub,2013-03-22 03:57:00,